Regional Weather Roundup
Issued by NWS

Home | Current Version | Previous Version | Text Only | Print | Product List | Glossary Off
Versions: 1 2 3 4 5 6 7 8 9 10 11 12 13 14 15 16 17 18 19 20 21 22 23 24 25 26 27 28 29 30 31 32 33 34 35 36 37 38 39 40 41 42 43 44 45 46 47 48 49 50

111
ASUS43 KLSX 201707
RWRMO

WEATHER SUMMARY FOR MISSOURI
NATIONAL WEATHER SERVICE SPRINGFIELD MO
1100 AM CST FRI JAN 20 2017

NOTE: "FAIR" INDICATES FEW OR NO CLOUDS BELOW 12,000 FEET WITH NO
       SIGNIFICANT WEATHER AND/OR OBSTRUCTIONS TO VISIBILITY.
       CURRENT SKY AND/OR WEATHER CONDITIONS ARE NOT AVAILABLE FOR
       CHILLICOTHE AND FARMINGTON.

MOZ001>031-035>038-043-044-053-054-201800-
...NORTHERN AND WESTERN MISSOURI...

CITY           SKY/WX    TMP DP  RH WIND       PRES   REMARKS
KANSAS CTY INT FOG       47  44  90 SE10      29.55F VSB 1/2
KANSAS C DTWN  CLOUDY    49  47  93 E6        29.55F
LEE`S SUMMIT   CLOUDY    48  48 100 SE7       29.56F FOG
ST JOSEPH      CLOUDY    47  47 100 SE3       29.56S
CHILLICOTHE      N/A     45  45 100 CALM      29.59F
KIRKSVILLE     FOG       45  45 100 E8        29.60F VSB 1

$$
MOZ066>068-077>081-088>096-101>105-201800-
...SOUTHWEST MISSOURI...

CITY           SKY/WX    TMP DP  RH WIND       PRES   REMARKS
SPRINGFIELD    CLOUDY    52  48  86 SE13      29.57F
JOPLIN         PTSUNNY   56  49  77 SE14G23   29.53F
BRANSON        MOSUNNY   54  54 100 SE7       29.60F

$$
MOZ032>034-039>042-045>050-055>058-069>072-201800-
...CENTRAL MISSOURI...

CITY           SKY/WX    TMP DP  RH WIND       PRES   REMARKS
COLUMBIA       CLOUDY    50  50 100 S7        29.60F
JEFFERSON CITY CLOUDY    51  48  89 SE10      29.61S
ROLLA          CLOUDY    49  48  97 S10       29.60F
SEDALIA        CLOUDY    50  49  96 S9        29.60R
WHITEMAN AFB   CLOUDY    48  48 100 SE5       29.57F FOG
WARRENSBURG    CLOUDY    46  46 100 E5        29.57F FOG
OSAGE BEACH    CLOUDY    50  48  93 S8        29.62R

$$
MOZ051-052-059>065-201800-
...EAST CENTRAL MISSOURI...

CITY           SKY/WX    TMP DP  RH WIND       PRES   REMARKS
ST LOUIS INTL  CLOUDY    53  48  83 S9        29.66F
SPIRIT OF STL  CLOUDY    52  49  89 S5        29.65F
ST CHARLES     CLOUDY    51  50  96 SE5       29.65F

$$
MOZ072>076-082>087-097>100-106>115-201800-
...SOUTH CENTRAL AND SOUTHEAST MISSOURI...

CITY           SKY/WX    TMP DP  RH WIND       PRES   REMARKS
CAPE GIRARDEAU CLOUDY    54  52  93 S6        29.70F
FARMINGTON     CLOUDY    51  48  89 S8        29.67F
POPLAR BLUFF   CLOUDY    54  54 100 S9        29.68F FOG
WEST PLAINS    CLOUDY    52  49  89 S8        29.64F

$$



USA.gov is the U.S. government's official web portal to all federal, state and local government web resources and services.